Flag for U.S.A. Weather past 2 weeks in Aspen, Colorado, U.S.A.

Now
26 °F

Light snow. Ice fog.


Feels Like: 26 °F
Forecast: 25 / 35 °F
Wind: No wind

Location: Aspen-Pitkin County Airport

Current Time: Mar 1, 2015 at 4:03:39 AM

Latest Report: Mar 1, 2015 at 2:57 AM


Visibility: 2 mi

Pressure: 29.95 "Hg

Humidity: 92%

Dew point: 24 °F

Location of AspenLocation

Historic Weather in Aspen — Graph

°F

Aspen temperature yesterday

Maximum temperature yesterday: 30 °F (at 12:53 PM)
Minimum temperature yesterday: 3 °F (at 6:53 AM)
Average temperature yesterday: 19 °F

Past Weeks' High & Low Weather Summary

 TemperatureHumidityPressure
High55 °F (Feb 14, 1:53 PM)100% (Feb 23, 11:53 PM)30.33 "Hg (Feb 23, 11:53 PM)
Low3 °F (Feb 28, 6:53 AM)22% (Feb 14, 2:53 PM)29.69 "Hg (Feb 20, 11:53 AM)
Average25 °F70%29.99 "Hg
* Reported Feb 14 2:53 AM — Mar 1 2:57 AM, Aspen, Weather by CustomWeather, © 2015

Note: Actual official high and low records may vary slightly from our data, if they occured in-between our weather recording intervals... More about our weather records

Advertising

Aspen weather history for previous 24 hours

 ConditionsComfort  
Time TempWeatherWind HumidityBarometerVisibility
2:57 AM
Sun, Mar 1
26 °FLight snow. Ice fog.No wind92%29.95 "Hg2 mi
1:58 AM26 °FLight snow. Ice fog.No wind92%29.94 "Hg2 mi
12:53 AM26 °FLight snow. Ice fog.No wind92%29.87 "Hg4 mi
12:00 AM27 °FLight snow. Ice fog.3 mph92%29.90 "Hg2 mi
11:00 PM
Sat, Feb 28
27 °FLight snow. Ice fog.5 mph92%29.87 "Hg1 mi
10:00 PM27 °FLight snow. Ice fog.No wind92%29.84 "Hg6 mi
8:53 PM27 °FLight snow. Ice fog.3 mph96%29.84 "Hg1 mi
8:00 PM28 °FLight snow. Ice fog.No wind93%29.79 "Hg2 mi
6:53 PM28 °FLight snow. Ice fog.No wind93%29.87 "Hg3 mi
5:53 PM28 °FLight snow. Ice fog.5 mph89%29.83 "Hg3 mi
4:53 PM29 °FLight snow. Mostly cloudy.6 mph82%29.81 "Hg5 mi
3:53 PM29 °FLight snow. Mostly cloudy.5 mph75%29.80 "Hg3 mi
2:53 PM29 °FLight snow. Overcast.5 mph64%29.78 "Hg4 mi
1:53 PM30 °FCloudy.8 mph54%29.77 "Hg10 mi
12:53 PM30 °FPassing clouds.7 mph49%29.73 "Hg10 mi
11:53 AM25 °FPartly sunny.7 mph53%29.83 "Hg10 mi
10:53 AM22 °FSunny.6 mph57%29.85 "Hg10 mi
9:53 AM19 °FSunny.No wind59%29.85 "Hg10 mi
8:53 AM16 °FSunny.No wind65%29.86 "Hg10 mi
7:53 AM7 °FSunny.No wind79%29.91 "Hg10 mi
6:53 AM3 °FSunny.5 mph79%29.93 "Hg10 mi
5:53 AM5 °FClear.6 mph80%29.86 "Hg10 mi
4:53 AM4 °FClear.5 mph80%29.87 "Hg10 mi
Weather by CustomWeather, © 2015

See weather overviewHow to use our weather pages